Miscellaneous Local Product
Issued by NWS North Platte, NE

Home | Current Version | Previous Version | Text Only | Print | Product List | Glossary On
Versions: 1 2 3 4 5 6 7 8 9 10 11 12 13 14 15 16 17 18 19 20 21 22 23 24 25 26 27 28 29 30 31 32 33 34 35 36 37 38 39 40 41 42 43 44 45 46 47 48 49 50
000
AXUS43 KLBF 261110
MISLBF


WESTERN AND NORTH CENTRAL NEBRASKA HOURLY WEATHER ROUNDUP
NATIONAL WEATHER SERVICE NORTH PLATTE NE
500 AM CST FRI DEC 26 2014

***STATIONS NOT REPORTING VARIABLES SUCH AS SKY/WEATHER OR
PRESSURE ARE PROVIDED BY THE NEBRASKA DEPARTMENT OF
ROADS...RAWS...AND APRS NETWORKS...AND ARE NOT UNDER
NATIONAL WEATHER SERVICE QUALITY CONTROL***

...OBSERVATIONS IN AND NEAR THE EASTERN PANHANDLE OF NEBRASKA...

CITY           SKY/WX    TMP DP  RH WIND       PRES   REMARKS
PINE RIDGE     LGT SNOW  20  16  84 N8        30.01S FOG     WCI  10
CHADRON        LGT SNOW  20  17  88 NE6       30.02R FOG     WCI  12
ALLIANCE       CLOUDY    15  13  91 N7        29.96R WCI   5
SIDNEY         FLURRIES  19  15  84 NE16      29.93R WCI   4
WHITECLAY        N/A     19  15  86 E10         N/A  WCI   7
CRESCENT LAKE    N/A     16  13  88 N7          N/A  WCI   6
LISCO            N/A     23  16  75 W10         N/A  WCI  12
BIG SPRINGS      N/A     23  19  85 N9          N/A  WCI  13
$$

...OBSERVATIONS IN NORTH CENTRAL NEBRASKA...

CITY           SKY/WX    TMP DP  RH WIND       PRES   REMARKS
VALENTINE      LGT SNOW  22  19  89 N10       30.02R FOG     WCI  11
THEDFORD       CLOUDY    24  22  90 N10G17    29.96F WCI  14
AINSWORTH      CLOUDY    23  20  90 N16       29.99R WCI  10
O`NEILL        CLOUDY    26  25  95 N15       29.97S WCI  14
ORD            CLOUDY    26  22  84 N22       29.93S WCI  12
BROKEN BOW     CLOUDY    25  22  88 N22G30    29.91F WCI  10
BROWNLEE         N/A     22  19  89 S14         N/A  WCI   9
SPRINGVIEW       N/A     24  20  85 W6G13       N/A  WCI  17
BREWSTER         N/A     27  25  92 N15         N/A  WCI  15
ROSE             N/A     28  28 100 NE3         N/A
SARGENT          N/A     25  23  90 NW7         N/A  WCI  17
COMSTOCK         N/A     30  28  93 N17         N/A  WCI  18
CHAMBERS         N/A     24  22  90 NE6G14      N/A  WCI  17
EWING            N/A     26  25  94 CALM        N/A
$$

...OBSERVATIONS IN SOUTHWEST NEBRASKA AND FAR NORTHEAST COLORADO...

CITY           SKY/WX    TMP DP  RH WIND       PRES   REMARKS
WRAY           CLOUDY    25  22  89 N15       29.92S WCI  12
IMPERIAL       CLOUDY    24  19  81 N16       29.94R WCI  11
OGALLALA       CLOUDY    23  18  80 N16G22    29.96R WCI  10
NORTH PLATTE   CLOUDY    24  20  84 N16       29.93S WCI  11
MCCOOK         CLOUDY    26  21  81 N21G30    29.92F WCI  12
LEXINGTON      CLOUDY    27  23  83 N21G28    29.93R WCI  14
PAXTON           N/A     24  20  85 N12         N/A  WCI  13
BRADY            N/A     24  20  86 NE3         N/A
GOTHENBURG       N/A     27  23  84 N12         N/A  WCI  17
CALLAWAY         N/A     23  21  93 N14         N/A  WCI  11
$$

...NORTH PLATTE AREA...

CITY           SKY/WX    TMP DP  RH WIND       PRES   REMARKS
AIRPORT        CLOUDY    24  20  84 N16       29.93S WCI  11
DOWNTOWN         N/A     23  20  87 NW7G16      N/A  WCI  15
$$

...SOME WEATHER OBSERVATIONS FROM AROUND THE REGION...

CITY           SKY/WX    TMP DP  RH WIND       PRES   REMARKS
DENVER         SNOW      17  15  92 N8        29.88R VSB 1/2 WCI   7
LARAMIE        CLOUDY     5   0  79 CALM      29.76S
CHEYENNE       CLOUDY    11   9  92 N7        29.84S WCI   0
SCOTTSBLUFF    CLOUDY    17  13  84 CALM      29.98R
RAPID CITY     CLOUDY    20  16  84 N12       30.03S WCI   8
PIERRE         CLOUDY    25  21  85 N12       30.06R WCI  14
WINNER         LGT SNOW  26  23  88 N10       30.03S FOG     WCI  16
SIOUX FALLS    CLOUDY    27  24  89 N15       29.94S WCI  15
OMAHA          CLOUDY    33  31  92 N18G26    29.88R WCI  22
GRAND ISLAND   CLOUDY    28  24  85 N22G28    29.91R WCI  14
KANSAS CITY    CLOUDY    45  33  63 S13       29.84S
WICHITA        MOCLDY    41  30  65 S7        29.82F
HAYS           CLOUDY    30  19  64 N21       29.88R WCI  17
LIBERAL        CLOUDY    30  21  69 N18       29.85R WCI  18
GOODLAND       CLOUDY    24  22  91 N22G29    29.87S WCI   9
$$



USA.gov is the U.S. government's official web portal to all federal, state and local government web resources and services.